South St. Paul, MN

2:25 AM CDT on April 28, 2017 (GMT -0500)
South Saint Paul Municipal-Fleming

Weather History for KSGS - January, 2014

Change the Weather History Date:

Monday, January 6, 2014

  Actual Average (KSTP) Record (KSTP)
Temperature  
Mean Temperature -12 °F -  
Max Temperature -8 °F 23 °F 46 °F (2012)
Min Temperature -17 °F 9 °F -20 °F (2014)
Degree Days  
Heating Degree Days 78    
Moisture  
Dew Point -24 °F    
Average Humidity 58    
Maximum Humidity 67    
Minimum Humidity 53    
Precipitation  
Precipitation 0.00 in - - ()
Sea Level Pressure  
Sea Level Pressure 30.25 in    
Wind  
Wind Speed 10 mph (WNW)    
Max Wind Speed 15 mph    
Max Gust Speed 23 mph    
Visibility 9 miles    
Events      
Averages and records for this station are not official NWS values.
T = Trace of Precipitation, MM = Missing Value Source: NWS Daily Summary

Daily Weather History Graph

Daily Weather History Graph

Search for Another Location

Airport or City:

Trip Planner

Search our weather history database for the weather conditions in past years. The results will help you decide how hot, cold, wet, or windy it might be!

Date:

Astronomy

Jan. 06, 2014 Rise Set
Actual Time 7:49 AM CST 4:46 PM CST
Civil Twilight 7:16 AM CST 5:20 PM CST
Nautical Twilight 6:39 AM CST 5:56 PM CST
Astronomical Twilight 6:04 AM CST 6:32 PM CST
Moon 10:48 AM CST (1/6) 11:38 PM CST (1/6)
Length of Visible Light 10h 03m
Length of Day
8h 57m
Waxing Crescent, 35% of the Moon is Illuminated
Jan 6
Waxing Crescent
Jan 7
First Quarter
Jan 15
Full
Jan 23
Last Quarter
Jan 30
New

Hourly Weather History & Observations

Time (CST) Temp. Windchill Dew Point Humidity Pressure Visibility Wind Dir Wind Speed Gust Speed Precip Events Conditions
12:12 AM -15.7 °F -35.7 °F -28.1 °F 54% 30.30 in 10.0 mi NW 10.4 mph - N/A   Clear
12:32 AM -16.2 °F -39.3 °F -28.3 °F 54% 30.30 in 10.0 mi NW 13.8 mph 17.3 mph N/A   Clear
12:52 AM -16.2 °F -36.4 °F -28.3 °F 54% 30.30 in 10.0 mi NW 10.4 mph 17.3 mph N/A   Clear
1:12 AM -16.6 °F -35.7 °F -28.7 °F 54% 30.30 in 10.0 mi NW 9.2 mph 18.4 mph N/A   Clear
1:32 AM -17.0 °F -38.4 °F -28.7 °F 55% 30.30 in 10.0 mi NW 11.5 mph - N/A   Clear
1:52 AM -17.0 °F -39.3 °F -28.5 °F 56% 30.30 in 10.0 mi WNW 12.7 mph 18.4 mph N/A   Clear
2:12 AM -17.1 °F -39.6 °F -28.5 °F 56% 30.30 in 10.0 mi NW 12.7 mph 17.3 mph N/A   Clear
2:32 AM -16.8 °F -38.1 °F -27.6 °F 58% 30.30 in 7.0 mi NW 11.5 mph 17.3 mph N/A   Clear
2:52 AM -17.0 °F -38.4 °F -28.1 °F 57% 30.30 in 7.0 mi WNW 11.5 mph 16.1 mph N/A   Clear
3:12 AM -17.1 °F -37.5 °F -28.3 °F 57% 30.30 in 10.0 mi NW 10.4 mph - N/A   Clear
3:32 AM -17.5 °F -39.0 °F -29.2 °F 55% 30.30 in 10.0 mi NW 11.5 mph 20.7 mph N/A   Clear
3:52 AM -17.5 °F -39.0 °F -28.8 °F 56% 30.30 in 10.0 mi NW 11.5 mph - N/A   Clear
4:12 AM -17.5 °F -35.5 °F -28.5 °F 57% 30.30 in 10.0 mi NW 8.1 mph - N/A   Clear
4:32 AM -17.5 °F -32.3 °F -28.3 °F 58% 30.30 in 10.0 mi WNW 5.8 mph - N/A   Clear
4:52 AM -17.5 °F -34.0 °F -28.3 °F 58% 30.29 in 10.0 mi WNW 6.9 mph - N/A   Clear
5:12 AM -17.5 °F -34.0 °F -27.6 °F 60% 30.30 in 10.0 mi WNW 6.9 mph - N/A   Clear
5:32 AM -17.7 °F -37.0 °F -27.6 °F 61% 30.29 in 10.0 mi WNW 9.2 mph 16.1 mph N/A   Clear
5:52 AM -17.5 °F -36.8 °F -28.3 °F 58% 30.29 in 10.0 mi WNW 9.2 mph 16.1 mph N/A   Clear
6:12 AM -17.7 °F -35.7 °F -28.1 °F 59% 30.29 in 10.0 mi WNW 8.1 mph - N/A   Clear
6:32 AM -17.9 °F -35.9 °F -28.3 °F 59% 30.29 in 10.0 mi WNW 8.1 mph - N/A   Clear
6:52 AM -17.7 °F -38.2 °F -27.6 °F 61% 30.28 in 5.0 mi WNW 10.4 mph - N/A   Haze
7:12 AM -17.5 °F -35.5 °F -27.4 °F 61% 30.28 in 4.0 mi WNW 8.1 mph - N/A   Haze
7:32 AM -17.5 °F -34.0 °F -27.0 °F 62% 30.27 in 7.0 mi WNW 6.9 mph - N/A   Clear
7:52 AM -17.1 °F -33.6 °F -26.7 °F 62% 30.28 in 5.0 mi West 6.9 mph - N/A   Haze
8:12 AM -16.8 °F -33.2 °F -26.7 °F 61% 30.27 in 5.0 mi WNW 6.9 mph - N/A   Haze
8:32 AM -16.6 °F -34.4 °F -26.7 °F 60% 30.27 in 10.0 mi WNW 8.1 mph 16.1 mph N/A   Clear
8:52 AM -16.1 °F -33.7 °F -26.5 °F 59% 30.28 in 10.0 mi WNW 8.1 mph - N/A   Clear
9:12 AM -15.7 °F -33.3 °F -26.5 °F 58% 30.29 in 10.0 mi WNW 8.1 mph 17.3 mph N/A   Clear
9:32 AM -15.0 °F -36.8 °F -26.0 °F 58% 30.28 in 10.0 mi WNW 12.7 mph 17.3 mph N/A   Clear
9:52 AM -14.3 °F -35.9 °F -25.6 °F 57% 30.28 in 10.0 mi West 12.7 mph 18.4 mph N/A   Clear
10:12 AM -13.7 °F -33.3 °F -24.9 °F 57% 30.28 in 10.0 mi WNW 10.4 mph - N/A   Clear
10:32 AM -13.2 °F -35.4 °F -24.7 °F 56% 30.28 in 7.0 mi WNW 13.8 mph 19.6 mph N/A   Clear
10:52 AM -13.0 °F -32.4 °F -24.5 °F 57% 30.27 in 7.0 mi NW 10.4 mph 18.4 mph N/A   Clear
11:12 AM -12.3 °F -31.5 °F -24.3 °F 55% 30.27 in 10.0 mi West 10.4 mph 17.3 mph N/A   Clear
11:32 AM -12.1 °F -34.9 °F -24.0 °F 56% 30.25 in 10.0 mi WNW 15.0 mph - N/A   Clear
11:52 AM -11.6 °F -30.6 °F -23.8 °F 55% 30.24 in 10.0 mi West 10.4 mph 18.4 mph N/A   Clear
12:12 PM -11.2 °F -31.1 °F -23.6 °F 54% 30.24 in 10.0 mi West 11.5 mph 17.3 mph N/A   Clear
12:32 PM -10.3 °F -30.0 °F -22.9 °F 54% 30.23 in 10.0 mi WNW 11.5 mph 17.3 mph N/A   Clear
12:52 PM -10.5 °F -32.0 °F -23.1 °F 54% 30.22 in 10.0 mi West 13.8 mph 17.3 mph N/A   Clear
1:12 PM -9.8 °F -28.3 °F -22.0 °F 55% 30.21 in 5.0 mi West 10.4 mph - N/A   Haze
1:32 PM -9.6 °F -28.1 °F -22.4 °F 54% 30.20 in 10.0 mi West 10.4 mph - N/A   Clear
1:52 PM -9.2 °F -30.4 °F -22.2 °F 53% 30.22 in 10.0 mi WNW 13.8 mph 18.4 mph N/A   Clear
2:12 PM -9.0 °F -28.4 °F -21.3 °F 55% 30.22 in 10.0 mi West 11.5 mph 21.9 mph N/A   Clear
2:32 PM -8.7 °F -27.0 °F -21.5 °F 54% 30.22 in 10.0 mi West 10.4 mph 23.0 mph N/A   Clear
2:52 PM -8.5 °F -28.6 °F -21.5 °F 53% 30.22 in 10.0 mi West 12.7 mph 20.7 mph N/A   Clear
3:12 PM -8.5 °F -28.6 °F -21.1 °F 54% 30.23 in 10.0 mi West 12.7 mph 18.4 mph N/A   Clear
3:32 PM -8.5 °F -27.8 °F -20.9 °F 55% 30.22 in 10.0 mi West 11.5 mph 16.1 mph N/A   Clear
3:52 PM -8.7 °F -28.9 °F -20.7 °F 56% 30.22 in 10.0 mi West 12.7 mph 16.1 mph N/A   Clear
4:12 PM -9.4 °F -30.6 °F -21.5 °F 56% 30.22 in 10.0 mi West 13.8 mph 18.4 mph N/A   Clear
4:32 PM -9.6 °F -27.0 °F -21.1 °F 57% 30.22 in 10.0 mi West 9.2 mph - N/A   Clear
4:52 PM -9.6 °F -30.8 °F -21.1 °F 57% 30.22 in 10.0 mi West 13.8 mph 21.9 mph N/A   Clear
5:12 PM -9.8 °F -27.3 °F -20.7 °F 59% 30.21 in 10.0 mi West 9.2 mph - N/A   Mostly Cloudy
5:32 PM -9.9 °F -26.3 °F -20.4 °F 60% 30.22 in 10.0 mi West 8.1 mph - N/A   Mostly Cloudy
5:52 PM -10.3 °F -30.0 °F -20.7 °F 60% 30.22 in 10.0 mi West 11.5 mph 20.7 mph N/A   Clear
6:12 PM -10.5 °F -31.1 °F -21.1 °F 60% 30.23 in 10.0 mi West 12.7 mph 19.6 mph N/A   Clear
6:32 PM -10.8 °F -28.6 °F -21.5 °F 59% 30.22 in 10.0 mi West 9.2 mph 21.9 mph N/A   Clear
6:52 PM -11.2 °F -29.0 °F -21.5 °F 60% 30.22 in 10.0 mi West 9.2 mph - N/A   Clear
7:12 PM -11.2 °F -29.0 °F -21.5 °F 60% 30.22 in 10.0 mi WNW 9.2 mph - N/A   Clear
7:32 PM -11.2 °F -27.8 °F -21.5 °F 60% 30.22 in 10.0 mi West 8.1 mph 16.1 mph N/A   Scattered Clouds
7:52 PM -11.2 °F -26.4 °F -21.5 °F 60% 30.22 in 10.0 mi WNW 6.9 mph 16.1 mph N/A   Clear
8:12 PM -11.2 °F -30.1 °F -21.5 °F 60% 30.22 in 10.0 mi West 10.4 mph - N/A   Clear
8:32 PM -11.2 °F -26.4 °F -21.3 °F 61% 30.21 in 10.0 mi West 6.9 mph - N/A   Clear
8:52 PM -11.2 °F -29.0 °F -21.3 °F 61% 30.20 in 10.0 mi West 9.2 mph - N/A   Clear
9:12 PM -11.2 °F -27.8 °F -21.1 °F 62% 30.20 in 10.0 mi West 8.1 mph - N/A   Clear
9:32 PM -11.2 °F -24.8 °F -21.1 °F 62% 30.20 in 10.0 mi WNW 5.8 mph - N/A   Clear
9:52 PM -11.2 °F -26.4 °F -21.1 °F 62% 30.20 in 10.0 mi WNW 6.9 mph - N/A   Clear
10:12 PM -11.2 °F -24.8 °F -20.7 °F 63% 30.19 in 10.0 mi WNW 5.8 mph - N/A   Clear
10:32 PM -11.2 °F -20.6 °F -20.7 °F 63% 30.19 in 10.0 mi West 3.5 mph - N/A   Clear
10:52 PM -11.2 °F -20.6 °F -20.6 °F 63% 30.19 in 10.0 mi West 3.5 mph - N/A   Clear
11:12 PM -11.2 °F - -20.4 °F 64% 30.18 in 10.0 mi Calm Calm - N/A   Clear
11:32 PM -11.2 °F -20.6 °F -20.2 °F 64% 30.18 in 10.0 mi West 3.5 mph - N/A   Clear
11:52 PM -11.4 °F - -19.7 °F 67% 30.17 in 10.0 mi Calm Calm - N/A   Clear